Time,TemperatureF,DewpointF,PressureIn,WindDirection,WindDirectionDegrees,WindSpeedMPH,WindSpeedGustMPH,Humidity,HourlyPrecipIn,Conditions,Clouds,dailyrainin,SoftwareType,DateUTC
2013-03-28 00:02:00,32.0,30.0,30.07,NW,322,5.0,8.0,94,0.00,,,0.06,,2013-03-28 04:02:00,
2013-03-28 00:12:00,32.0,30.0,30.07,NW,322,5.0,8.0,94,0.00,,,0.06,,2013-03-28 04:12:00,
2013-03-28 00:23:00,32.0,30.0,30.07,WNW,288,3.0,8.0,94,0.00,,,0.06,,2013-03-28 04:23:00,
2013-03-28 00:32:00,32.0,30.0,30.07,NW,309,4.0,6.0,94,0.00,,,0.06,,2013-03-28 04:32:00,
2013-03-28 00:42:00,32.0,30.0,30.07,NW,309,4.0,6.0,94,0.00,,,0.06,,2013-03-28 04:42:00,
2013-03-28 00:52:00,32.0,30.0,30.06,WNW,283,3.0,6.0,94,0.00,,,0.06,,2013-03-28 04:52:00,
2013-03-28 01:02:00,32.0,30.0,30.06,West,271,3.0,6.0,94,0.00,,,0.06,,2013-03-28 05:02:00,
2013-03-28 01:12:00,32.0,30.0,30.06,West,271,3.0,6.0,94,0.00,,,0.06,,2013-03-28 05:12:00,
2013-03-28 01:22:00,32.0,30.0,30.06,NW,307,4.0,6.0,94,0.00,,,0.06,,2013-03-28 05:22:00,
2013-03-28 01:32:00,32.0,30.0,30.06,NW,306,3.0,4.0,94,0.00,,,0.06,,2013-03-28 05:32:00,
2013-03-28 01:42:00,32.0,30.0,30.06,NW,306,3.0,4.0,94,0.00,,,0.06,,2013-03-28 05:42:00,
2013-03-28 01:52:00,32.0,30.0,30.07,West,281,3.0,6.0,94,0.00,,,0.06,,2013-03-28 05:52:00,
2013-03-28 02:02:00,32.0,30.0,30.07,West,273,3.0,7.0,94,0.00,,,0.06,,2013-03-28 06:02:00,
2013-03-28 02:12:00,32.0,30.0,30.07,West,273,3.0,7.0,94,0.00,,,0.06,,2013-03-28 06:12:00,
2013-03-28 02:22:00,32.0,30.0,30.07,NW,323,5.0,8.0,93,0.00,,,0.06,,2013-03-28 06:22:00,
2013-03-28 02:32:00,32.0,30.0,30.06,WNW,295,4.0,7.0,93,0.00,,,0.06,,2013-03-28 06:32:00,
2013-03-28 02:42:00,32.0,30.0,30.06,WNW,295,4.0,7.0,93,0.00,,,0.06,,2013-03-28 06:42:00,
2013-03-28 02:52:00,32.0,30.0,30.07,West,273,4.0,6.0,93,0.00,,,0.06,,2013-03-28 06:52:00,
2013-03-28 03:02:00,33.0,31.0,30.07,WNW,290,4.0,7.0,93,0.00,,,0.06,,2013-03-28 07:02:00,
2013-03-28 03:13:00,33.0,31.0,30.07,WNW,290,4.0,7.0,93,0.00,,,0.06,,2013-03-28 07:13:00,
2013-03-28 03:22:00,33.0,31.0,30.07,NW,320,5.0,8.0,93,0.00,,,0.06,,2013-03-28 07:22:00,
2013-03-28 03:32:00,33.0,31.0,30.07,West,274,4.0,7.0,93,0.00,,,0.06,,2013-03-28 07:32:00,
2013-03-28 03:42:00,33.0,31.0,30.07,West,274,4.0,7.0,93,0.00,,,0.06,,2013-03-28 07:42:00,
2013-03-28 03:52:00,33.0,31.0,30.07,West,280,4.0,6.0,93,0.00,,,0.06,,2013-03-28 07:52:00,
2013-03-28 04:02:00,33.0,31.0,30.07,NW,304,5.0,8.0,93,0.00,,,0.06,,2013-03-28 08:02:00,
2013-03-28 04:12:00,33.0,31.0,30.07,NW,304,5.0,8.0,93,0.00,,,0.06,,2013-03-28 08:12:00,
2013-03-28 04:22:00,33.0,31.0,30.07,WNW,283,4.0,8.0,93,0.00,,,0.06,,2013-03-28 08:22:00,
2013-03-28 04:32:00,33.0,31.0,30.07,WNW,284,5.0,8.0,93,0.00,,,0.06,,2013-03-28 08:32:00,
2013-03-28 04:42:00,33.0,31.0,30.07,WNW,284,5.0,8.0,93,0.00,,,0.06,,2013-03-28 08:42:00,
2013-03-28 04:52:00,33.0,31.0,30.08,NW,317,4.0,9.0,93,0.00,,,0.06,,2013-03-28 08:52:00,
2013-03-28 05:02:00,33.0,31.0,30.08,WNW,291,3.0,6.0,92,0.00,,,0.06,,2013-03-28 09:02:00,
2013-03-28 05:12:00,33.0,31.0,30.08,WNW,291,3.0,6.0,92,0.00,,,0.06,,2013-03-28 09:12:00,
2013-03-28 05:22:00,33.0,31.0,30.07,West,261,4.0,7.0,93,0.00,,,0.06,,2013-03-28 09:22:00,
2013-03-28 05:32:00,33.0,31.0,30.08,WNW,282,5.0,8.0,93,0.00,,,0.06,,2013-03-28 09:32:00,
2013-03-28 05:42:00,33.0,31.0,30.08,WNW,282,5.0,8.0,93,0.00,,,0.06,,2013-03-28 09:42:00,
2013-03-28 05:52:00,33.0,31.0,30.08,WNW,290,4.0,10.0,93,0.00,,,0.06,,2013-03-28 09:52:00,
2013-03-28 06:03:00,33.0,31.0,30.08,WNW,297,4.0,8.0,93,0.00,,,0.06,,2013-03-28 10:03:00,
2013-03-28 06:12:00,33.0,31.0,30.08,WNW,297,4.0,8.0,93,0.00,,,0.06,,2013-03-28 10:12:00,
2013-03-28 06:22:00,33.0,31.0,30.08,WNW,290,5.0,8.0,93,0.00,,,0.06,,2013-03-28 10:22:00,
2013-03-28 06:33:00,33.0,31.0,30.09,WSW,243,4.0,7.0,93,0.00,,,0.06,,2013-03-28 10:33:00,
2013-03-28 06:42:00,33.0,31.0,30.09,WSW,243,4.0,7.0,93,0.00,,,0.06,,2013-03-28 10:42:00,
2013-03-28 06:53:00,33.0,31.0,30.09,WNW,294,3.0,5.0,93,0.00,,,0.06,,2013-03-28 10:53:00,
2013-03-28 07:02:00,33.0,31.0,30.09,WSW,253,3.0,6.0,93,0.00,,,0.06,,2013-03-28 11:02:00,
2013-03-28 07:12:00,33.0,31.0,30.09,WSW,253,3.0,6.0,93,0.00,,,0.06,,2013-03-28 11:12:00,
2013-03-28 07:23:00,33.0,31.0,30.10,West,263,2.0,5.0,93,0.00,,,0.06,,2013-03-28 11:23:00,
2013-03-28 07:32:00,33.0,31.0,30.11,West,259,2.0,5.0,93,0.00,,,0.06,,2013-03-28 11:32:00,
2013-03-28 07:42:00,33.0,31.0,30.11,West,259,2.0,5.0,93,0.00,,,0.06,,2013-03-28 11:42:00,
2013-03-28 07:52:00,33.0,31.0,30.11,WNW,291,2.0,5.0,93,0.00,,,0.06,,2013-03-28 11:52:00,
2013-03-28 08:02:00,33.0,31.0,30.11,NW,307,4.0,7.0,93,0.00,,,0.06,,2013-03-28 12:02:00,
2013-03-28 08:12:00,33.0,31.0,30.11,NW,307,4.0,7.0,93,0.00,,,0.06,,2013-03-28 12:12:00,
2013-03-28 08:22:00,34.0,32.0,30.12,WNW,285,3.0,8.0,92,0.00,,,0.06,,2013-03-28 12:22:00,
2013-03-28 08:32:00,34.0,32.0,30.12,West,271,3.0,9.0,92,0.00,,,0.06,,2013-03-28 12:32:00,
2013-03-28 08:42:00,34.0,32.0,30.12,West,271,3.0,9.0,92,0.00,,,0.06,,2013-03-28 12:42:00,
2013-03-28 08:52:00,34.0,32.0,30.12,West,278,4.0,7.0,92,0.00,,,0.06,,2013-03-28 12:52:00,
2013-03-28 09:02:00,34.0,32.0,30.12,WNW,287,4.0,7.0,91,0.00,,,0.06,,2013-03-28 13:02:00,
2013-03-28 09:12:00,34.0,32.0,30.12,WNW,287,4.0,7.0,91,0.00,,,0.06,,2013-03-28 13:12:00,
2013-03-28 09:22:00,35.0,33.0,30.13,West,280,2.0,5.0,91,0.00,,,0.06,,2013-03-28 13:22:00,
2013-03-28 09:32:00,35.0,32.0,30.13,NW,312,3.0,8.0,90,0.01,,,0.07,,2013-03-28 13:32:00,
2013-03-28 09:42:00,35.0,32.0,30.13,NW,312,3.0,8.0,90,0.01,,,0.07,,2013-03-28 13:42:00,
2013-03-28 09:52:00,35.0,32.0,30.13,WNW,290,4.0,7.0,90,0.02,,,0.08,,2013-03-28 13:52:00,
2013-03-28 10:02:00,36.0,33.0,30.14,WNW,291,4.0,7.0,89,0.02,,,0.08,,2013-03-28 14:02:00,
2013-03-28 10:12:00,36.0,33.0,30.14,WNW,291,4.0,7.0,89,0.02,,,0.08,,2013-03-28 14:12:00,
2013-03-28 10:22:00,37.0,34.0,30.14,WNW,298,7.0,10.0,87,0.03,,,0.09,,2013-03-28 14:22:00,
2013-03-28 10:32:00,38.0,34.0,30.14,NW,311,3.0,9.0,87,0.03,,,0.10,,2013-03-28 14:32:00,
2013-03-28 10:42:00,38.0,34.0,30.14,NW,311,3.0,9.0,87,0.03,,,0.10,,2013-03-28 14:42:00,
2013-03-28 10:52:00,38.0,34.0,30.15,NNW,342,7.0,11.0,84,0.03,,,0.11,,2013-03-28 14:52:00,
2013-03-28 11:02:00,38.0,34.0,30.15,WNW,300,6.0,10.0,84,0.03,,,0.11,,2013-03-28 15:02:00,
2013-03-28 11:12:00,38.0,34.0,30.15,WNW,300,6.0,10.0,84,0.03,,,0.11,,2013-03-28 15:12:00,
2013-03-28 11:22:00,39.0,34.0,30.15,West,273,7.0,11.0,83,0.02,,,0.11,,2013-03-28 15:22:00,
2013-03-28 11:33:00,39.0,34.0,30.15,NNW,339,7.0,10.0,82,0.01,,,0.11,,2013-03-28 15:33:00,
2013-03-28 11:43:00,39.0,34.0,30.15,NNW,339,7.0,10.0,82,0.01,,,0.11,,2013-03-28 15:43:00,
2013-03-28 11:53:00,40.0,34.0,30.15,WNW,287,8.0,12.0,78,0.00,,,0.11,,2013-03-28 15:53:00,
2013-03-28 12:02:00,40.0,32.0,30.16,NNW,327,8.0,11.0,74,0.00,,,0.11,,2013-03-28 16:02:00,
2013-03-28 12:12:00,40.0,32.0,30.16,NNW,327,8.0,11.0,74,0.00,,,0.11,,2013-03-28 16:12:00,
2013-03-28 12:23:00,41.0,34.0,30.16,NW,304,6.0,12.0,75,0.00,,,0.11,,2013-03-28 16:23:00,
2013-03-28 12:32:00,41.0,34.0,30.16,NW,311,6.0,11.0,75,0.00,,,0.11,,2013-03-28 16:32:00,
2013-03-28 12:42:00,41.0,34.0,30.16,NW,311,6.0,11.0,75,0.00,,,0.11,,2013-03-28 16:42:00,
2013-03-28 12:52:00,41.0,32.0,30.16,NNW,334,9.0,14.0,70,0.00,,,0.11,,2013-03-28 16:52:00,
2013-03-28 13:02:00,41.0,33.0,30.16,West,280,8.0,13.0,72,0.00,,,0.11,,2013-03-28 17:02:00,
2013-03-28 13:12:00,41.0,33.0,30.16,West,280,8.0,13.0,72,0.00,,,0.11,,2013-03-28 17:12:00,
2013-03-28 13:22:00,41.0,32.0,30.15,NNW,337,8.0,15.0,70,0.00,,,0.11,,2013-03-28 17:22:00,
2013-03-28 13:32:00,42.0,31.0,30.16,NNW,345,8.0,12.0,65,0.00,,,0.11,,2013-03-28 17:32:00,
2013-03-28 13:42:00,42.0,31.0,30.16,NNW,345,8.0,12.0,65,0.00,,,0.11,,2013-03-28 17:42:00,
2013-03-28 13:52:00,42.0,31.0,30.16,WNW,290,5.0,13.0,66,0.00,,,0.11,,2013-03-28 17:52:00,
2013-03-28 14:02:00,42.0,29.0,30.16,NW,307,8.0,12.0,60,0.00,,,0.11,,2013-03-28 18:02:00,
2013-03-28 14:12:00,42.0,29.0,30.16,NW,307,8.0,12.0,60,0.00,,,0.11,,2013-03-28 18:12:00,
2013-03-28 14:22:00,42.0,29.0,30.16,NW,304,6.0,11.0,60,0.00,,,0.11,,2013-03-28 18:22:00,
2013-03-28 14:32:00,42.0,29.0,30.15,WNW,291,7.0,13.0,59,0.00,,,0.11,,2013-03-28 18:32:00,
2013-03-28 14:42:00,42.0,29.0,30.15,WNW,291,7.0,13.0,59,0.00,,,0.11,,2013-03-28 18:42:00,
2013-03-28 14:52:00,42.0,28.0,30.16,NW,312,6.0,13.0,57,0.00,,,0.11,,2013-03-28 18:52:00,
2013-03-28 15:02:00,42.0,28.0,30.16,NNW,330,6.0,12.0,57,0.00,,,0.11,,2013-03-28 19:02:00,
2013-03-28 15:12:00,42.0,28.0,30.16,NNW,330,6.0,12.0,57,0.00,,,0.11,,2013-03-28 19:12:00,
2013-03-28 15:22:00,42.0,27.0,30.16,NNE,18,7.0,11.0,55,0.00,,,0.11,,2013-03-28 19:22:00,
2013-03-28 15:33:00,42.0,27.0,30.15,NW,319,8.0,12.0,56,0.00,,,0.11,,2013-03-28 19:33:00,
2013-03-28 15:42:00,42.0,27.0,30.15,NW,319,8.0,12.0,56,0.00,,,0.11,,2013-03-28 19:42:00,
2013-03-28 15:52:00,42.0,27.0,30.15,WNW,287,5.0,10.0,56,0.00,,,0.11,,2013-03-28 19:52:00,
2013-03-28 16:03:00,42.0,27.0,30.15,NW,307,6.0,11.0,56,0.00,,,0.11,,2013-03-28 20:03:00,
2013-03-28 16:22:00,42.0,26.0,30.15,West,276,5.0,9.0,53,0.00,,,0.11,,2013-03-28 20:22:00,
2013-03-28 16:32:00,43.0,28.0,30.15,NW,306,5.0,13.0,54,0.00,,,0.11,,2013-03-28 20:32:00,
2013-03-28 16:42:00,43.0,28.0,30.15,NW,306,5.0,13.0,54,0.00,,,0.11,,2013-03-28 20:42:00,
2013-03-28 16:53:00,43.0,27.0,30.15,WNW,301,7.0,14.0,53,0.00,,,0.11,,2013-03-28 20:53:00,
2013-03-28 17:02:00,42.0,26.0,30.16,NW,317,7.0,14.0,53,0.00,,,0.11,,2013-03-28 21:02:00,
2013-03-28 17:12:00,42.0,26.0,30.16,NW,317,7.0,14.0,53,0.00,,,0.11,,2013-03-28 21:12:00,
2013-03-28 17:22:00,42.0,26.0,30.16,WNW,303,6.0,12.0,53,0.00,,,0.10,,2013-03-28 21:22:00,
2013-03-28 17:33:00,42.0,27.0,30.16,WNW,301,6.0,11.0,55,0.00,,,0.10,,2013-03-28 21:33:00,
2013-03-28 17:43:00,42.0,27.0,30.16,WNW,301,6.0,11.0,55,0.00,,,0.10,,2013-03-28 21:43:00,
2013-03-28 17:53:00,41.0,33.0,30.16,West,277,6.0,13.0,74,0.00,,,0.10,,2013-03-28 21:53:00,
2013-03-28 18:03:00,40.0,34.0,30.16,SW,232,8.0,14.0,78,0.00,,,0.10,,2013-03-28 22:03:00,
2013-03-28 18:13:00,40.0,34.0,30.16,SW,232,8.0,14.0,78,0.00,,,0.10,,2013-03-28 22:13:00,
2013-03-28 18:23:00,40.0,34.0,30.16,WSW,243,11.0,16.0,80,0.00,,,0.09,,2013-03-28 22:23:00,
2013-03-28 18:32:00,39.0,34.0,30.17,WSW,243,9.0,12.0,81,0.00,,,0.09,,2013-03-28 22:32:00,
2013-03-28 18:42:00,39.0,34.0,30.17,WSW,243,9.0,12.0,81,0.00,,,0.09,,2013-03-28 22:42:00,
2013-03-28 18:53:00,39.0,34.0,30.17,WSW,245,8.0,13.0,82,0.00,,,0.09,,2013-03-28 22:53:00,
2013-03-28 19:03:00,39.0,34.0,30.18,West,260,7.0,11.0,82,0.00,,,0.09,,2013-03-28 23:03:00,
2013-03-28 19:12:00,39.0,34.0,30.18,West,260,7.0,11.0,82,0.00,,,0.09,,2013-03-28 23:12:00,
2013-03-28 19:22:00,38.0,33.0,30.18,SW,224,6.0,11.0,83,0.00,,,0.09,,2013-03-28 23:22:00,
2013-03-28 19:32:00,38.0,33.0,30.19,WSW,256,4.0,10.0,83,0.00,,,0.09,,2013-03-28 23:32:00,
2013-03-28 19:42:00,38.0,33.0,30.19,WSW,256,4.0,10.0,83,0.00,,,0.09,,2013-03-28 23:42:00,
2013-03-28 19:53:00,38.0,33.0,30.19,WSW,255,7.0,13.0,83,0.00,,,0.09,,2013-03-28 23:53:00,
2013-03-28 20:02:00,38.0,34.0,30.19,SW,234,6.0,11.0,84,0.00,,,0.09,,2013-03-29 00:02:00,
2013-03-28 20:12:00,38.0,34.0,30.19,SW,234,6.0,11.0,84,0.00,,,0.09,,2013-03-29 00:12:00,
2013-03-28 20:22:00,37.0,33.0,30.19,WSW,238,6.0,14.0,84,0.00,,,0.07,,2013-03-29 00:22:00,
2013-03-28 20:32:00,37.0,33.0,30.19,SW,225,8.0,12.0,85,0.00,,,0.07,,2013-03-29 00:32:00,
2013-03-28 20:42:00,37.0,33.0,30.19,SW,225,8.0,12.0,85,0.00,,,0.07,,2013-03-29 00:42:00,
2013-03-28 20:52:00,37.0,33.0,30.20,SW,236,6.0,9.0,86,0.00,,,0.07,,2013-03-29 00:52:00,
2013-03-28 21:02:00,36.0,33.0,30.20,SW,236,6.0,11.0,87,0.00,,,0.07,,2013-03-29 01:02:00,
2013-03-28 21:12:00,36.0,33.0,30.20,SW,236,6.0,11.0,87,0.00,,,0.07,,2013-03-29 01:12:00,
2013-03-28 21:22:00,36.0,33.0,30.20,SW,224,7.0,11.0,88,0.00,,,0.06,,2013-03-29 01:22:00,
2013-03-28 21:33:00,35.0,32.0,30.21,WSW,248,8.0,12.0,89,0.00,,,0.06,,2013-03-29 01:33:00,
2013-03-28 21:42:00,35.0,32.0,30.21,WSW,248,8.0,12.0,89,0.00,,,0.06,,2013-03-29 01:42:00,
2013-03-28 21:52:00,35.0,32.0,30.21,SW,227,6.0,10.0,89,0.00,,,0.06,,2013-03-29 01:52:00,
2013-03-28 22:02:00,35.0,32.0,30.21,WSW,243,5.0,9.0,89,0.00,,,0.06,,2013-03-29 02:02:00,
2013-03-28 22:12:00,35.0,32.0,30.21,WSW,243,5.0,9.0,89,0.00,,,0.06,,2013-03-29 02:12:00,
2013-03-28 22:22:00,35.0,32.0,30.21,WSW,248,6.0,9.0,89,0.00,,,0.06,,2013-03-29 02:22:00,
2013-03-28 22:32:00,35.0,32.0,30.21,SW,225,5.0,9.0,90,0.00,,,0.05,,2013-03-29 02:32:00,
2013-03-28 22:42:00,35.0,32.0,30.21,SW,225,5.0,9.0,90,0.00,,,0.05,,2013-03-29 02:42:00,
2013-03-28 22:52:00,35.0,32.0,30.21,SW,225,7.0,11.0,90,0.00,,,0.05,,2013-03-29 02:52:00,
2013-03-28 23:02:00,35.0,32.0,30.21,SSW,212,6.0,8.0,90,0.00,,,0.05,,2013-03-29 03:02:00,
2013-03-28 23:12:00,35.0,32.0,30.21,SSW,212,6.0,8.0,90,0.00,,,0.05,,2013-03-29 03:12:00,
2013-03-28 23:22:00,35.0,32.0,30.21,West,259,7.0,9.0,90,0.00,,,0.05,,2013-03-29 03:22:00,
2013-03-28 23:32:00,35.0,32.0,30.21,SW,236,5.0,7.0,90,0.00,,,0.05,,2013-03-29 03:32:00,
2013-03-28 23:43:00,35.0,32.0,30.21,SW,236,5.0,7.0,90,0.00,,,0.05,,2013-03-29 03:43:00,
2013-03-28 23:53:00,35.0,32.0,30.21,SW,233,5.0,8.0,90,0.00,,,0.05,,2013-03-29 03:53:00,